Tracking 29777 objects as of 6-Oct-2024
HD Live streaming from Space Station
objects crossing your sky now

TITAN 3C TRANSTAGE R/B

Track TITAN 3C TRANSTAGE R/B now!


NORAD ID: 3692
Int'l Code: 1969-013B
Perigee: 35,843.1 km
Apogee: 37,313.8 km
Inclination: 0.4 °
Period: 1,476.4 minutes
Semi major axis: 42949 km
RCS: 2.2907 m2 (large)
Launch date: February 9, 1969
Source: United States (US)
Launch site: AIR FORCE EASTERN TEST RANGE (AFETR)

Note: This is a ROCKET BODY
Your satellite tracking list
Your tracking list is empty




NASA's NSSDC Master Catalog

Two Line Element Set (TLE):
1 03692U 69013B   24280.48906076 -.00000216  00000-0  00000-0 0  9995
2 03692   0.3764 293.8721 0171211 172.1929 218.4250  0.97536379 36299
Source of the keplerian elements: AFSPC